Home   Weather   Fall River   Past weeks

Flag for USA Past Weather in Fall River, Massachusetts, USA — Yesterday and Last 2 Weeks

Now
50 °F

Overcast.


Feels Like: 48 °F
Forecast: 47 / 51 °F
Wind: 5 mph from Southeast

Location: New Bedford Regional Airport

Current Time: Apr 24, 2017 at 11:02:28 pm

Latest Report: Apr 24, 2017 at 9:53 pm


Visibility: 10 mi

Pressure: 30.19 "Hg

Humidity: 77%

Dew Point: 43 °F

Location of Fall RiverLocation

Past Weather in Fall River — Graph

°F

Fall River Temperature Yesterday

Maximum temperature yesterday: 58 °F (at 12:53 pm)
Minimum temperature yesterday: 39 °F (at 3:53 am)
Average temperature yesterday: 47 °F

High & Low Weather Summary for the Past Weeks

 TemperatureHumidityPressure
High81 °F (Apr 16, 1:53 pm)100% (Apr 14, 6:02 am)30.58 "Hg (Apr 14, 6:02 am)
Low31 °F (Apr 14, 6:02 am)21% (Apr 17, 3:53 pm)29.72 "Hg (Apr 16, 7:53 pm)
Average51 °F73%30.13 "Hg
* Reported Apr 9 9:53 pm — Apr 24 9:53 pm, Fall River, Weather by CustomWeather, © 2017

Note: Actual official high and low records may vary slightly from our data, if they occured in-between our weather recording intervals... More about our weather records

Advertising

Fall River Weather History for the Previous 24 Hours

Scroll right to see more
 ConditionsComfort  
Time TempWeatherWind HumidityBarometerVisibility
9:53 pm
Mon, Apr 24
50 °FOvercast.5 mph77%30.19 "Hg10 mi
8:53 pm50 °FOvercast.5 mph74%30.19 "Hg10 mi
7:53 pm50 °FPassing clouds.No wind77%30.19 "Hg10 mi
6:53 pm50 °FPassing clouds.6 mph77%30.17 "Hg10 mi
5:53 pm53 °FPassing clouds.9 mph55%30.17 "Hg10 mi
4:53 pm55 °FPassing clouds.7 mph62%30.17 "Hg10 mi
3:53 pm57 °FSunny.7 mph49%30.16 "Hg10 mi
2:53 pm57 °FSunny.8 mph51%30.17 "Hg10 mi
1:53 pm58 °FSunny.9 mph56%30.18 "Hg10 mi
12:53 pm60 °FSunny.12 mph56%30.17 "Hg10 mi
11:53 am60 °FSunny.12 mph58%30.17 "Hg10 mi
10:53 am60 °FSunny.6 mph52%30.18 "Hg10 mi
9:53 am57 °FSunny.7 mph58%30.18 "Hg10 mi
8:53 am54 °FSunny.7 mph64%30.19 "Hg10 mi
7:53 am48 °FSunny.6 mph86%30.17 "Hg10 mi
6:53 am43 °FSunny.3 mph97%30.16 "Hg10 mi
5:53 am40 °FSunny.3 mph97%30.14 "Hg7 mi
5:35 am40 °FFog.5 mph97%30.14 "Hg2 mi
5:22 am38 °FFog.5 mph93%30.14 "Hg3 mi
4:53 am40 °FClear.3 mph97%30.13 "Hg9 mi
3:53 am38 °FClear.3 mph97%30.12 "Hg7 mi
2:53 am42 °FClear.3 mph92%30.11 "Hg10 mi
1:53 am41 °FClear.5 mph93%30.12 "Hg10 mi
12:53 am43 °FClear.3 mph89%30.13 "Hg10 mi
11:53 pm
Sun, Apr 23
43 °FClear.5 mph86%30.12 "Hg10 mi
Weather by CustomWeather, © 2017

See weather overviewHow to use our weather pages